EHI
77 85 90 89 90 92 89 86 85 83 73 59 51 54 56 52 47 50 55 46 28 18 16 17 21 20 19 13 8 7 6 4 4 4 4 4 7 10 12 11 9 8 7
81 87 91 91 92 93 92 90 87 83 75 63 56 58 59 51 44 49 53 43 28 20 17 20 22 21 19 15 11 10 7 5 4 4 4 4 5 7 9 11 10 9 9
84 89 92 92 93 94 93 91 88 84 77 69 62 61 61 52 47 51 52 42 31 24 23 26 26 21 19 18 17 13 9 6 6 6 5 4 4 4 6 8 11 12 11
80 87 91 91 91 92 90 88 87 85 80 74 67 64 60 54 52 55 54 47 38 32 32 34 33 26 22 21 19 16 12 9 7 7 6 5 4 2 2 5 8 10 10
73 81 87 87 88 88 87 85 86 85 81 76 71 66 59 55 55 58 58 54 48 41 40 42 41 36 30 26 23 20 16 12 9 7 7 7 5 3 1 2 3 5 6
69 77 84 86 86 86 85 84 84 83 79 75 70 66 59 56 57 59 59 55 51 47 44 44 47 45 38 34 31 26 20 14 9 8 8 7 5 3 1 0 1 2 4
66 74 83 87 88 86 84 82 82 80 77 73 69 65 59 54 54 55 55 52 47 46 45 45 50 49 42 39 37 30 24 18 12 8 7 6 4 3 1 0 0 2 3
60 69 80 86 88 86 82 80 79 78 77 73 68 63 57 52 51 52 51 49 46 48 49 49 50 49 44 41 37 29 25 23 17 10 7 6 5 4 3 2 1 1 1
51 61 74 83 84 82 79 78 77 76 76 72 66 61 57 53 52 53 52 50 50 51 53 51 47 45 42 40 36 28 24 25 22 15 11 9 8 6 5 4 3 1 1
44 53 68 77 79 77 76 75 74 73 72 68 62 59 57 54 54 55 56 55 54 54 53 50 43 38 37 37 33 26 23 24 23 20 17 15 12 9 7 6 4 3 3
37 45 59 69 73 73 74 74 72 70 68 63 58 56 55 54 54 56 57 56 55 56 54 49 41 34 34 35 30 25 23 23 21 20 19 18 15 12 9 7 5 4 5
32 39 52 63 67 70 72 71 68 67 65 59 55 54 54 54 55 57 56 55 54 54 52 47 40 35 34 35 30 26 25 23 21 19 18 17 16 14 12 9 7 5 5
33 40 52 60 64 66 68 67 65 63 60 56 52 52 54 55 55 57 57 55 54 51 47 44 41 37 36 35 32 29 28 24 21 19 17 15 15 15 13 9 8 7 6
39 46 56 60 62 64 65 64 62 59 57 53 51 51 53 54 55 57 59 57 52 48 44 42 40 37 35 34 33 31 28 24 20 18 16 14 13 13 12 9 8 9 8
43 50 57 59 59 61 62 62 62 60 56 53 52 52 52 52 52 56 58 57 49 41 39 38 34 31 29 27 27 26 24 23 20 17 15 12 9 8 8 6 5 6 7
45 51 56 57 57 57 58 61 63 62 58 54 53 53 52 49 46 49 52 51 44 36 35 33 30 26 21 16 13 16 19 20 19 16 13 9 5 3 3 2 2 2 3
48 51 54 55 56 57 58 59 60 62 61 56 52 51 50 46 41 41 44 44 39 37 36 34 30 26 18 9 4 7 13 17 18 15 11 7 4 2 2 2 0 0 1
50 52 52 52 54 57 58 56 56 59 59 54 50 48 45 41 38 37 38 37 35 36 38 35 30 24 16 7 2 2 7 13 16 14 10 7 5 3 3 3 2 1 0
50 49 47 46 51 55 56 54 53 54 54 50 47 45 41 37 34 33 33 33 33 35 34 30 25 20 13 6 1 1 4 9 13 11 8 6 5 3 3 4 4 3 2
46 45 44 46 50 53 54 53 52 52 51 48 44 42 39 36 33 32 32 33 34 34 30 23 19 16 12 5 1 1 4 7 9 8 6 5 3 1 1 3 5 4 4
42 44 47 50 50 50 52 53 52 50 48 46 42 40 40 38 36 36 36 35 33 31 25 19 15 14 11 6 2 1 3 5 6 7 6 5 2 0 0 1 3 3 3
42 44 48 50 49 49 52 53 51 48 45 43 40 39 38 36 36 38 38 36 32 26 20 15 13 12 11 7 2 0 1 2 4 5 5 4 2 0 0 0 1 1 1
43 44 45 44 45 47 49 50 49 46 43 41 38 35 31 29 30 32 31 29 27 21 14 11 11 11 10 8 4 1 0 0 2 2 2 1 0 0 0 0 0 0 0
43 43 42 42 43 44 44 45 46 45 41 37 33 28 23 22 23 22 18 17 15 13 10 9 10 10 9 9 7 3 1 0 0 0 0 0 0 0 0 0 0 0 0
42 42 42 43 43 41 40 41 43 42 36 30 26 23 20 19 17 13 9 8 7 6 7 7 7 7 7 7 7 5 1 0 0 0 0 0 0 1 1 1 1 0 0
42 42 43 43 41 38 36 37 40 39 32 26 23 21 20 19 15 10 7 4 4 3 3 4 4 3 3 3 4 3 1 0 0 0 0 0 1 2 3 3 2 1 0
Wind_Speed
15 15 15 15 14 13 12 11 10 10 8 7 7 6 5 4 4 4 7 7 5 5 4 3 4 2 2 3 3 2 2 1 1 1 1 0 2 3 2 2 3 4 4
15 15 15 14 14 13 13 12 11 11 10 7 5 5 5 4 4 4 6 7 6 6 6 3 4 3 2 3 2 2 1 1 2 1 1 0 0 1 3 3 3 4 4
17 17 16 15 15 15 14 13 12 11 10 9 6 5 4 3 4 5 5 7 7 6 4 5 4 4 4 4 3 3 3 2 2 2 2 1 1 1 1 2 3 3 3
16 17 16 15 15 14 14 12 12 11 11 10 9 9 7 6 6 5 5 7 7 6 5 5 4 4 3 4 5 5 3 3 2 2 1 1 1 1 1 1 2 4 4
16 17 17 16 15 15 14 12 12 11 11 10 9 9 7 6 5 5 6 7 6 6 6 5 5 4 3 4 4 3 3 2 3 2 2 2 2 2 2 2 2 2 3
15 16 16 15 14 14 14 13 13 12 11 11 10 9 9 8 8 7 7 6 5 5 7 7 5 5 4 4 3 3 4 2 2 2 1 1 2 2 2 2 3 3 3
13 15 16 16 14 14 13 13 13 12 12 13 11 10 9 9 8 8 8 7 6 6 7 7 6 5 4 4 4 4 3 4 3 3 2 2 2 2 2 2 2 2 2
12 14 15 15 14 15 14 13 13 13 13 13 11 10 10 8 7 8 7 7 5 6 7 7 7 6 6 6 5 4 4 4 3 4 3 2 2 2 1 2 2 1 1
12 13 14 15 14 14 13 13 13 12 12 12 11 10 10 9 8 8 7 5 5 5 7 8 7 7 6 5 5 4 4 4 4 4 4 3 3 2 2 1 1 2 2
10 11 11 12 12 12 12 12 12 11 11 11 11 11 10 9 7 7 8 6 6 5 6 7 6 6 6 5 5 4 4 4 4 3 4 3 3 3 2 2 2 2 2
8 9 10 10 12 12 12 11 11 11 11 11 10 9 10 10 8 7 7 6 6 6 7 7 7 7 6 6 5 5 5 5 4 4 4 4 4 3 2 2 2 2 1
8 8 9 10 10 10 10 10 10 11 11 11 10 9 9 9 9 9 8 7 6 6 6 6 7 7 6 6 6 7 6 6 5 5 4 4 4 4 3 2 3 2 2
6 6 6 7 7 8 8 9 9 10 10 11 11 10 9 9 9 8 8 7 7 7 6 6 7 7 6 6 6 6 6 6 5 5 5 5 4 4 3 3 3 2 3
5 6 6 5 5 6 6 7 8 8 9 9 10 10 9 9 8 8 8 7 7 7 7 6 6 6 6 6 6 6 6 5 5 5 5 5 5 5 4 4 3 3 3
5 7 6 5 5 5 5 6 6 7 7 8 8 8 8 8 8 8 7 7 7 8 6 6 7 6 6 7 8 7 7 6 5 5 4 4 4 4 3 3 2 3 3
5 7 7 6 5 4 5 5 5 6 6 7 7 7 7 7 7 7 7 7 6 6 6 6 7 7 7 8 10 8 6 6 6 5 4 5 5 4 4 4 2 2 3
6 6 5 5 4 4 4 5 5 5 5 6 6 6 6 7 7 8 7 7 6 6 6 6 6 5 5 7 8 9 5 5 5 5 4 5 6 7 5 6 6 5 6
6 5 4 4 4 5 5 5 5 5 5 5 5 6 7 6 6 6 6 6 5 5 5 5 5 4 5 7 8 8 5 4 4 4 4 4 3 4 4 5 6 6 5
6 5 4 4 4 5 5 5 5 5 5 5 5 5 6 6 6 5 5 5 5 5 5 4 4 4 4 6 8 7 5 4 4 4 4 4 4 5 4 4 5 4 4
6 5 5 5 4 4 5 5 5 5 5 5 5 4 5 5 6 5 5 4 4 4 4 4 4 4 4 7 9 9 5 4 4 3 3 4 5 4 4 4 4 4 4
6 5 5 5 4 4 5 5 4 4 4 4 4 4 4 4 4 4 3 4 4 4 3 3 3 3 4 6 9 9 4 3 4 3 3 3 6 6 6 5 3 4 3
7 6 5 5 4 4 4 4 4 3 4 4 5 5 4 4 4 4 4 4 4 4 3 3 2 2 3 4 7 9 7 4 3 2 2 1 4 7 7 5 3 2 2
6 5 6 5 4 4 4 5 4 3 4 5 5 5 4 3 3 3 3 3 3 3 3 3 3 2 2 3 6 8 8 7 4 2 1 0 1 3 4 4 3 2 1
6 6 6 5 5 5 4 4 4 4 5 5 5 4 4 4 3 2 2 1 1 2 2 2 2 2 2 1 2 4 4 5 4 3 1 2 2 2 1 2 2 2 1
6 6 6 6 6 6 5 4 4 4 5 5 5 4 4 4 4 5 4 3 3 2 0 0 1 1 1 1 2 2 2 3 3 3 2 1 1 2 1 1 1 1 1
6 6 7 6 6 6 6 5 5 4 5 4 4 3 4 4 4 5 6 9 8 10 11 8 6 6 7 6 6 5 5 4 4 3 2 1 1 1 1 1 0 0 0
Wind_Direction
171 168 168 168 166 162 163 168 168 162 165 172 179 180 171 174 173 168 156 163 173 173 197 170 154 178 155 151 152 148 168 213 170 123 112 205 184 174 180 182 166 169 166
170 168 171 172 171 169 170 172 173 169 175 175 178 176 166 176 181 174 156 170 177 175 189 174 167 169 153 162 166 156 182 218 180 166 140 166 306 257 203 178 178 167 161
178 173 175 178 176 176 176 178 177 174 180 170 175 176 160 177 179 168 169 180 179 184 192 171 179 169 179 171 185 176 192 209 208 201 183 161 191 223 245 208 164 158 164
179 173 178 180 180 178 178 177 178 177 181 175 182 180 180 186 185 174 176 180 182 183 186 176 179 177 185 165 193 190 191 201 222 218 215 199 159 170 172 246 173 178 180
177 173 180 182 181 179 179 179 180 182 180 182 184 184 188 189 180 177 172 176 182 187 187 182 176 179 195 184 198 169 197 203 224 227 210 200 177 205 182 198 188 190 189
172 169 176 176 180 179 179 181 179 181 180 185 187 191 191 188 182 182 175 179 181 191 192 186 179 184 195 189 184 184 199 225 250 265 260 202 192 206 203 198 194 195 199
171 168 172 175 176 178 178 179 178 182 184 189 191 194 196 193 189 186 183 185 184 189 192 188 178 188 188 186 185 192 221 206 220 238 257 263 243 222 204 193 205 187 189
173 169 172 173 177 179 177 179 179 183 187 192 192 193 195 198 196 196 191 190 195 187 177 177 179 188 188 193 185 194 207 201 209 232 242 266 270 268 236 202 184 190 208
173 167 169 173 178 180 179 182 180 184 187 191 190 192 196 201 197 192 197 196 198 190 174 175 181 188 193 192 177 204 204 188 201 221 229 239 259 260 258 243 210 194 206
166 164 166 171 175 178 178 182 181 185 185 189 191 193 196 199 197 194 195 195 194 189 163 175 182 188 190 189 191 201 198 201 213 217 224 224 246 254 240 235 242 234 203
157 160 163 169 169 174 174 178 182 183 185 189 193 194 192 195 197 199 192 188 188 185 176 180 185 190 192 190 196 212 197 205 222 228 216 218 241 259 261 242 237 244 230
156 159 161 164 165 170 174 178 184 186 188 189 189 194 190 190 194 195 191 184 182 184 184 185 188 193 195 193 196 212 205 199 213 222 222 219 220 230 262 266 247 245 237
140 140 143 154 164 167 169 175 184 188 188 186 189 192 191 190 191 190 185 183 182 185 190 191 194 199 195 193 203 209 209 204 209 211 216 224 222 220 231 250 258 257 251
134 127 133 149 153 157 164 174 182 186 186 187 190 190 190 189 188 186 183 182 185 188 191 196 203 203 196 198 206 207 210 207 205 209 217 221 220 220 226 238 243 263 267
141 133 136 137 142 153 158 168 177 179 181 184 188 188 189 185 183 182 182 181 187 195 192 196 204 205 205 207 204 205 207 204 203 207 216 228 223 213 209 237 238 248 252
143 133 134 137 145 156 161 164 164 168 169 177 181 177 178 180 180 179 178 179 188 192 189 196 203 208 216 204 196 197 206 193 198 206 214 217 206 200 201 214 222 226 246
130 123 131 137 148 151 146 152 151 154 162 167 169 168 172 178 182 181 175 181 189 189 194 199 204 207 209 199 189 191 198 195 195 200 207 229 224 202 208 216 223 236 240
121 117 120 130 140 140 138 145 150 156 158 162 166 169 174 177 175 176 173 178 187 192 196 201 204 197 196 186 182 184 196 205 203 202 204 221 253 245 224 224 221 222 228
114 115 118 121 127 132 138 143 152 158 163 168 172 173 172 167 167 173 173 179 185 192 196 195 196 194 188 180 178 180 195 202 209 218 219 218 225 242 224 230 237 234 240
110 117 119 116 117 123 130 140 149 150 157 161 160 157 158 162 169 172 175 175 173 176 181 182 185 190 190 185 185 188 203 203 205 213 225 233 231 238 216 226 237 246 254
103 104 104 103 106 119 126 134 137 140 145 139 140 140 144 154 162 161 162 162 167 169 175 174 180 188 196 184 188 189 204 204 203 217 218 215 207 213 209 213 228 238 255
102 98 95 95 96 106 121 124 121 121 127 132 133 133 135 153 158 157 165 168 171 175 177 178 185 191 189 186 186 185 199 217 225 230 219 177 193 198 200 203 227 246 256
91 94 97 96 96 102 111 118 113 118 122 121 123 127 129 125 125 146 158 161 168 185 184 185 191 194 188 177 177 185 198 214 222 251 216 149 170 180 193 210 214 219 232
86 92 97 95 91 89 90 98 106 117 116 116 117 119 113 104 90 85 92 107 162 186 190 188 186 181 170 156 168 181 192 203 214 233 214 145 132 137 124 145 180 198 224
87 84 86 84 82 86 85 88 95 103 111 110 109 112 110 110 94 77 54 65 47 27 94 110 138 140 138 97 115 153 161 172 176 177 183 193 147 138 132 127 146 176 202
87 86 84 82 78 77 75 73 81 94 104 108 107 113 119 117 115 110 87 55 60 60 58 57 71 70 74 79 90 100 103 121 136 133 131 123 104 92 96 109 119 144 203